Voltar ao catálogo

QIANFAN-196

AtivoComunicaçõesPO
NORAD 69414·PAYLOAD·🇨🇳 China

Lançado Jun 5, 2026 de Wenchang Space Launch Site

Loading…

Próximas Passagens (próximas 24 horas)

TLE

AtualizadoSource: Space-Track

Época: Sep 14, 2026, 23:05 UTC

1 69414U 26125P   26257.96190728  .00000014  00000-0  35577-5 0  9991
2 69414  88.9905 270.8630 0001856  92.4334 267.7030 13.51035260 14080

Acompanhe QIANFAN-196 em tempo real com AllMySat

Download on the App Store